Time,TemperatureF,DewpointF,PressureIn,WindDirection,WindDirectionDegrees,WindSpeedMPH,WindSpeedGustMPH,Humidity,HourlyPrecipIn,Conditions,Clouds,dailyrainin,SoftwareType,DateUTC
2013-08-17 01:40:00,51.8,50.4,30.30,NNE,22,0.0,0.0,95,0.00,,,0.00,Wunderground v.1.15,2013-08-17 05:40:00,
2013-08-17 01:42:00,51.7,50.3,30.30,NNE,22,0.0,0.0,95,0.00,,,0.00,Wunderground v.1.15,2013-08-17 05:42:00,
2013-08-17 01:43:00,51.7,50.0,30.30,NNE,22,0.0,0.0,94,0.00,,,0.00,Wunderground v.1.15,2013-08-17 05:43:00,
2013-08-17 01:45:00,51.6,49.9,30.30,NNE,22,0.0,0.0,94,0.00,,,0.00,Wunderground v.1.15,2013-08-17 05:45:00,
2013-08-17 01:51:00,51.5,50.1,30.30,NNE,22,0.0,0.0,95,0.00,,,0.00,Wunderground v.1.15,2013-08-17 05:51:00,
2013-08-17 01:57:00,51.6,50.2,30.30,NNE,22,0.0,0.0,95,0.00,,,0.00,Wunderground v.1.15,2013-08-17 05:57:00,
2013-08-17 02:03:00,51.5,50.1,30.31,NNE,22,0.0,0.0,95,0.00,,,0.00,Wunderground v.1.15,2013-08-17 06:03:00,
2013-08-17 02:09:00,51.4,50.0,30.31,NNE,22,0.0,0.0,95,0.00,,,0.00,Wunderground v.1.15,2013-08-17 06:09:00,
2013-08-17 02:14:00,51.3,49.9,30.31,NNE,22,0.0,0.0,95,0.00,,,0.00,Wunderground v.1.15,2013-08-17 06:14:00,
2013-08-17 02:20:00,51.2,49.8,30.30,NNE,22,0.0,0.0,95,0.00,,,0.00,Wunderground v.1.15,2013-08-17 06:20:00,
2013-08-17 02:26:00,51.1,49.7,30.31,NNE,22,0.0,0.0,95,0.00,,,0.00,Wunderground v.1.15,2013-08-17 06:26:00,
2013-08-17 02:32:00,51.2,49.8,30.31,NNE,22,0.0,0.0,95,0.00,,,0.00,Wunderground v.1.15,2013-08-17 06:32:00,
2013-08-17 02:37:00,51.2,49.8,30.31,NNE,22,0.0,0.0,95,0.00,,,0.00,Wunderground v.1.15,2013-08-17 06:37:00,
2013-08-17 02:43:00,51.1,49.7,30.30,NNE,22,0.0,0.0,95,0.00,,,0.00,Wunderground v.1.15,2013-08-17 06:43:00,
2013-08-17 02:49:00,51.1,49.7,30.30,NNE,22,0.0,0.0,95,0.00,,,0.00,Wunderground v.1.15,2013-08-17 06:49:00,
2013-08-17 02:54:00,50.9,49.5,30.30,NNE,22,0.0,0.0,95,0.00,,,0.00,Wunderground v.1.15,2013-08-17 06:54:00,
2013-08-17 03:00:00,50.6,49.2,30.30,NNE,22,0.0,0.0,95,0.00,,,0.00,Wunderground v.1.15,2013-08-17 07:00:00,
2013-08-17 03:06:00,50.4,49.0,30.31,NNE,22,0.0,0.0,95,0.00,,,0.00,Wunderground v.1.15,2013-08-17 07:06:00,
2013-08-17 03:12:00,50.2,48.8,30.30,NNE,22,0.0,0.0,95,0.00,,,0.00,Wunderground v.1.15,2013-08-17 07:12:00,
2013-08-17 03:17:00,50.1,48.7,30.30,NNE,22,0.0,0.0,95,0.00,,,0.00,Wunderground v.1.15,2013-08-17 07:17:00,
2013-08-17 03:23:00,50.1,48.7,30.31,NNE,22,0.0,0.0,95,0.00,,,0.00,Wunderground v.1.15,2013-08-17 07:23:00,
2013-08-17 03:29:00,50.2,48.8,30.30,NNE,22,0.0,0.0,95,0.00,,,0.00,Wunderground v.1.15,2013-08-17 07:29:00,
2013-08-17 03:35:00,50.2,49.1,30.31,NNE,22,0.0,0.0,96,0.00,,,0.00,Wunderground v.1.15,2013-08-17 07:35:00,
2013-08-17 03:40:00,50.1,48.7,30.31,NNE,22,0.0,0.0,95,0.00,,,0.00,Wunderground v.1.15,2013-08-17 07:40:00,
2013-08-17 03:46:00,49.9,48.5,30.31,NNE,22,0.0,0.0,95,0.00,,,0.00,Wunderground v.1.15,2013-08-17 07:46:00,
2013-08-17 03:52:00,49.9,48.5,30.31,NNE,22,0.0,0.0,95,0.00,,,0.00,Wunderground v.1.15,2013-08-17 07:52:00,
2013-08-17 03:58:00,49.9,48.8,30.31,NNE,22,0.0,0.0,96,0.00,,,0.00,Wunderground v.1.15,2013-08-17 07:58:00,
2013-08-17 04:04:00,49.9,48.8,30.31,NNE,22,0.0,0.0,96,0.00,,,0.00,Wunderground v.1.15,2013-08-17 08:04:00,
2013-08-17 04:10:00,49.8,48.7,30.31,NNE,22,0.0,0.0,96,0.00,,,0.00,Wunderground v.1.15,2013-08-17 08:10:00,
2013-08-17 04:16:00,49.8,48.7,30.31,NNE,22,0.0,0.0,96,0.00,,,0.00,Wunderground v.1.15,2013-08-17 08:16:00,
2013-08-17 04:21:00,49.7,48.6,30.32,NNE,22,0.0,0.0,96,0.00,,,0.00,Wunderground v.1.15,2013-08-17 08:21:00,
2013-08-17 04:27:00,49.7,48.6,30.32,NNE,22,0.0,0.0,96,0.00,,,0.00,Wunderground v.1.15,2013-08-17 08:27:00,
2013-08-17 04:33:00,49.6,48.5,30.32,NNE,22,0.0,0.0,96,0.00,,,0.00,Wunderground v.1.15,2013-08-17 08:33:00,
2013-08-17 04:39:00,49.5,48.4,30.32,NNE,22,0.0,0.0,96,0.00,,,0.00,Wunderground v.1.15,2013-08-17 08:39:00,
2013-08-17 04:44:00,49.4,48.3,30.32,NNE,22,0.0,0.0,96,0.00,,,0.00,Wunderground v.1.15,2013-08-17 08:44:00,
2013-08-17 04:50:00,49.3,48.2,30.32,NNE,22,0.0,0.0,96,0.00,,,0.00,Wunderground v.1.15,2013-08-17 08:50:00,
2013-08-17 04:56:00,49.2,48.1,30.32,NNE,22,0.0,0.0,96,0.00,,,0.00,Wunderground v.1.15,2013-08-17 08:56:00,
2013-08-17 05:02:00,49.2,48.1,30.33,NNE,22,0.0,0.0,96,0.00,,,0.00,Wunderground v.1.15,2013-08-17 09:02:00,
2013-08-17 05:08:00,49.1,48.0,30.33,NNE,22,0.0,0.0,96,0.00,,,0.00,Wunderground v.1.15,2013-08-17 09:08:00,
2013-08-17 05:14:00,49.1,48.0,30.33,NNE,22,0.0,0.0,96,0.00,,,0.00,Wunderground v.1.15,2013-08-17 09:14:00,
2013-08-17 05:20:00,49.0,47.9,30.33,NNE,22,0.0,0.0,96,0.00,,,0.00,Wunderground v.1.15,2013-08-17 09:20:00,
2013-08-17 05:25:00,49.0,47.9,30.33,NNE,22,0.0,0.0,96,0.00,,,0.00,Wunderground v.1.15,2013-08-17 09:25:00,
2013-08-17 05:31:00,49.0,47.9,30.33,NNE,22,0.0,0.0,96,0.00,,,0.00,Wunderground v.1.15,2013-08-17 09:31:00,
2013-08-17 05:37:00,49.1,48.0,30.33,NNE,22,0.0,0.0,96,0.00,,,0.00,Wunderground v.1.15,2013-08-17 09:37:00,
2013-08-17 05:43:00,49.0,47.9,30.33,NNE,22,0.0,0.0,96,0.00,,,0.00,Wunderground v.1.15,2013-08-17 09:43:00,
2013-08-17 05:48:00,49.1,48.0,30.33,NNE,22,0.0,0.0,96,0.00,,,0.00,Wunderground v.1.15,2013-08-17 09:48:00,
2013-08-17 05:54:00,49.1,48.0,30.33,NNE,22,0.0,0.0,96,0.00,,,0.00,Wunderground v.1.15,2013-08-17 09:54:00,
2013-08-17 06:00:00,49.0,47.9,30.33,NNE,22,0.0,0.0,96,0.00,,,0.00,Wunderground v.1.15,2013-08-17 10:00:00,
2013-08-17 06:06:00,49.0,47.9,30.33,NNE,22,0.0,0.0,96,0.00,,,0.01,Wunderground v.1.15,2013-08-17 10:06:00,
2013-08-17 06:12:00,49.0,47.9,30.33,NNE,22,0.0,0.0,96,0.00,,,0.01,Wunderground v.1.15,2013-08-17 10:12:00,
2013-08-17 06:18:00,49.0,47.9,30.34,NNE,22,0.0,0.0,96,0.00,,,0.01,Wunderground v.1.15,2013-08-17 10:18:00,
2013-08-17 06:24:00,48.9,47.8,30.34,NNE,22,0.0,0.0,96,0.00,,,0.01,Wunderground v.1.15,2013-08-17 10:24:00,
2013-08-17 06:29:00,48.9,47.8,30.34,NNE,22,0.0,0.0,96,0.00,,,0.01,Wunderground v.1.15,2013-08-17 10:29:00,
2013-08-17 06:35:00,48.8,47.7,30.34,NNE,22,0.0,0.0,96,0.00,,,0.01,Wunderground v.1.15,2013-08-17 10:35:00,
2013-08-17 06:41:00,48.8,47.7,30.34,NNE,22,0.0,0.0,96,0.00,,,0.01,Wunderground v.1.15,2013-08-17 10:41:00,
2013-08-17 06:46:00,48.9,47.8,30.34,NNE,22,0.0,0.0,96,0.00,,,0.01,Wunderground v.1.15,2013-08-17 10:46:00,
2013-08-17 06:52:00,49.0,47.9,30.35,NNE,22,0.0,0.0,96,0.00,,,0.01,Wunderground v.1.15,2013-08-17 10:52:00,
2013-08-17 06:58:00,49.1,48.3,30.34,NNE,22,0.0,0.0,97,0.00,,,0.01,Wunderground v.1.15,2013-08-17 10:58:00,
2013-08-17 07:03:00,49.2,48.1,30.35,NNE,22,0.0,0.0,96,0.00,,,0.01,Wunderground v.1.15,2013-08-17 11:03:00,
2013-08-17 07:09:00,49.3,48.2,30.35,NNE,22,0.0,0.0,96,0.00,,,0.01,Wunderground v.1.15,2013-08-17 11:09:00,
2013-08-17 07:15:00,49.4,48.6,30.35,NNE,22,0.0,0.0,97,0.00,,,0.01,Wunderground v.1.15,2013-08-17 11:15:00,
2013-08-17 07:21:00,49.5,48.7,30.35,NNE,22,0.0,0.0,97,0.00,,,0.01,Wunderground v.1.15,2013-08-17 11:21:00,
2013-08-17 07:27:00,49.5,48.4,30.35,NNE,22,0.0,0.0,96,0.00,,,0.01,Wunderground v.1.15,2013-08-17 11:27:00,
2013-08-17 07:33:00,49.5,48.4,30.35,NNE,22,0.0,0.0,96,0.00,,,0.01,Wunderground v.1.15,2013-08-17 11:33:00,
2013-08-17 07:39:00,49.5,48.7,30.35,NNE,22,0.0,0.0,97,0.00,,,0.01,Wunderground v.1.15,2013-08-17 11:39:00,
2013-08-17 07:44:00,49.5,48.7,30.35,NNE,22,0.0,0.0,97,0.00,,,0.01,Wunderground v.1.15,2013-08-17 11:44:00,
2013-08-17 07:50:00,49.7,48.9,30.35,NNE,22,0.0,0.0,97,0.00,,,0.01,Wunderground v.1.15,2013-08-17 11:50:00,
2013-08-17 07:56:00,50.0,49.2,30.36,NNE,22,0.0,0.0,97,0.00,,,0.01,Wunderground v.1.15,2013-08-17 11:56:00,
2013-08-17 08:02:00,50.6,49.8,30.36,NNE,22,0.0,0.0,97,0.00,,,0.01,Wunderground v.1.15,2013-08-17 12:02:00,
2013-08-17 08:07:00,51.0,50.2,30.36,NNE,22,0.0,0.0,97,0.00,,,0.01,Wunderground v.1.15,2013-08-17 12:07:00,
2013-08-17 08:11:00,51.2,50.4,30.36,NNE,22,0.0,0.0,97,0.00,,,0.01,Wunderground v.1.15,2013-08-17 12:11:00,
2013-08-17 08:17:00,51.3,50.5,30.36,NNE,22,0.0,0.0,97,0.00,,,0.01,Wunderground v.1.15,2013-08-17 12:17:00,
2013-08-17 08:23:00,51.5,50.7,30.36,NNE,22,0.0,0.0,97,0.00,,,0.01,Wunderground v.1.15,2013-08-17 12:23:00,
2013-08-17 08:28:00,51.7,50.9,30.35,NNE,22,0.0,0.0,97,0.00,,,0.01,Wunderground v.1.15,2013-08-17 12:28:00,
2013-08-17 08:34:00,52.3,51.5,30.36,NNE,22,0.0,0.0,97,0.00,,,0.01,Wunderground v.1.15,2013-08-17 12:34:00,
2013-08-17 08:40:00,53.1,52.3,30.35,NNE,22,0.0,0.0,97,0.00,,,0.01,Wunderground v.1.15,2013-08-17 12:40:00,
2013-08-17 08:46:00,53.8,53.0,30.35,NNE,22,0.0,0.0,97,0.00,,,0.01,Wunderground v.1.15,2013-08-17 12:46:00,
2013-08-17 08:52:00,54.2,53.4,30.35,NNE,22,0.0,1.0,97,0.00,,,0.01,Wunderground v.1.15,2013-08-17 12:52:00,
2013-08-17 08:58:00,54.6,53.8,30.35,NNE,22,0.0,1.0,97,0.00,,,0.01,Wunderground v.1.15,2013-08-17 12:58:00,
2013-08-17 09:04:00,55.0,54.2,30.35,NNE,22,0.0,0.0,97,0.00,,,0.01,Wunderground v.1.15,2013-08-17 13:04:00,
2013-08-17 09:09:00,55.4,54.6,30.35,NNE,22,0.0,0.0,97,0.00,,,0.01,Wunderground v.1.15,2013-08-17 13:09:00,
2013-08-17 09:15:00,55.9,55.1,30.35,NNW,348,0.0,3.0,97,0.00,,,0.01,Wunderground v.1.15,2013-08-17 13:15:00,
2013-08-17 09:21:00,56.4,55.6,30.36,NNW,344,0.0,0.0,97,0.00,,,0.01,Wunderground v.1.15,2013-08-17 13:21:00,
2013-08-17 09:27:00,57.2,56.4,30.35,NNW,338,0.0,0.0,97,0.00,,,0.01,Wunderground v.1.15,2013-08-17 13:27:00,
2013-08-17 09:32:00,58.0,57.2,30.35,NNW,338,0.0,0.0,97,0.00,,,0.01,Wunderground v.1.15,2013-08-17 13:32:00,
2013-08-17 09:38:00,58.9,57.8,30.35,NNW,338,0.0,0.0,96,0.00,,,0.01,Wunderground v.1.15,2013-08-17 13:38:00,
2013-08-17 09:44:00,60.0,58.3,30.35,NNW,338,0.0,0.0,94,0.00,,,0.01,Wunderground v.1.15,2013-08-17 13:44:00,
2013-08-17 09:50:00,61.2,58.2,30.35,NNW,340,0.0,0.0,90,0.00,,,0.01,Wunderground v.1.15,2013-08-17 13:50:00,
2013-08-17 09:56:00,62.4,58.8,30.35,NNW,340,0.0,0.0,88,0.00,,,0.01,Wunderground v.1.15,2013-08-17 13:56:00,
2013-08-17 10:02:00,64.0,58.7,30.36,NNW,338,0.0,0.0,83,0.00,,,0.01,Wunderground v.1.15,2013-08-17 14:02:00,
2013-08-17 10:08:00,65.0,59.0,30.35,NW,311,0.0,2.0,81,0.00,,,0.01,Wunderground v.1.15,2013-08-17 14:08:00,
2013-08-17 10:13:00,65.9,59.2,30.36,NW,311,0.0,4.0,79,0.00,,,0.01,Wunderground v.1.15,2013-08-17 14:13:00,
2013-08-17 10:19:00,66.6,59.2,30.35,NW,311,0.0,4.0,77,0.00,,,0.01,Wunderground v.1.15,2013-08-17 14:19:00,
2013-08-17 10:29:00,67.4,59.2,30.36,NW,305,1.0,2.0,75,0.00,,,0.01,Wunderground v.1.15,2013-08-17 14:29:00,
2013-08-17 10:35:00,67.8,59.2,30.36,NW,305,1.0,2.0,74,0.00,,,0.01,Wunderground v.1.15,2013-08-17 14:35:00,
2013-08-17 10:41:00,68.5,59.5,30.36,NW,305,0.0,0.0,73,0.00,,,0.01,Wunderground v.1.15,2013-08-17 14:41:00,
2013-08-17 10:47:00,69.2,59.8,30.36,NW,306,0.0,2.0,72,0.00,,,0.01,Wunderground v.1.15,2013-08-17 14:47:00,
2013-08-17 10:53:00,70.1,60.3,30.36,NW,306,0.0,1.0,71,0.00,,,0.01,Wunderground v.1.15,2013-08-17 14:53:00,
2013-08-17 10:59:00,71.4,60.3,30.35,NW,306,0.0,1.0,68,0.00,,,0.01,Wunderground v.1.15,2013-08-17 14:59:00,
2013-08-17 11:05:00,72.4,59.5,30.35,WNW,303,0.0,2.0,64,0.00,,,0.01,Wunderground v.1.15,2013-08-17 15:05:00,
2013-08-17 11:10:00,72.9,57.7,30.35,NW,304,1.0,1.0,59,0.00,,,0.01,Wunderground v.1.15,2013-08-17 15:10:00,
2013-08-17 11:16:00,73.6,55.4,30.35,NW,310,0.0,1.0,53,0.00,,,0.01,Wunderground v.1.15,2013-08-17 15:16:00,
2013-08-17 11:22:00,74.2,56.5,30.36,NNW,334,0.0,0.0,54,0.00,,,0.01,Wunderground v.1.15,2013-08-17 15:22:00,
2013-08-17 11:28:00,74.5,57.3,30.35,NNW,334,0.0,0.0,55,0.00,,,0.01,Wunderground v.1.15,2013-08-17 15:28:00,
2013-08-17 11:33:00,74.9,57.1,30.35,NNW,334,0.0,0.0,54,0.00,,,0.01,Wunderground v.1.15,2013-08-17 15:33:00,
2013-08-17 11:39:00,75.1,57.8,30.35,NNE,31,0.0,1.0,55,0.00,,,0.01,Wunderground v.1.15,2013-08-17 15:39:00,
2013-08-17 11:45:00,75.2,56.9,30.35,NE,37,1.0,2.0,53,0.00,,,0.01,Wunderground v.1.15,2013-08-17 15:45:00,
2013-08-17 11:51:00,75.5,57.2,30.35,NE,51,1.0,1.0,53,0.00,,,0.01,Wunderground v.1.15,2013-08-17 15:51:00,
2013-08-17 11:57:00,75.8,56.4,30.35,NE,55,1.0,2.0,51,0.00,,,0.01,Wunderground v.1.15,2013-08-17 15:57:00,
2013-08-17 12:03:00,75.5,54.4,30.34,NNE,26,1.0,2.0,48,0.00,,,0.01,Wunderground v.1.15,2013-08-17 16:03:00,
2013-08-17 12:09:00,75.7,54.6,30.35,ESE,115,1.0,3.0,48,0.00,,,0.01,Wunderground v.1.15,2013-08-17 16:09:00,
2013-08-17 12:14:00,75.6,56.2,30.34,ESE,122,2.0,4.0,51,0.00,,,0.01,Wunderground v.1.15,2013-08-17 16:14:00,
2013-08-17 12:20:00,75.3,55.9,30.34,SE,140,2.0,2.0,51,0.00,,,0.01,Wunderground v.1.15,2013-08-17 16:20:00,
2013-08-17 12:26:00,76.3,56.3,30.34,SSE,167,1.0,2.0,50,0.00,,,0.01,Wunderground v.1.15,2013-08-17 16:26:00,
2013-08-17 12:32:00,76.8,55.0,30.34,West,263,2.0,5.0,47,0.00,,,0.01,Wunderground v.1.15,2013-08-17 16:32:00,
2013-08-17 12:37:00,76.2,53.9,30.34,West,278,3.0,5.0,46,0.00,,,0.01,Wunderground v.1.15,2013-08-17 16:37:00,
2013-08-17 12:43:00,76.4,55.3,30.34,WSW,244,3.0,8.0,48,0.00,,,0.01,Wunderground v.1.15,2013-08-17 16:43:00,
2013-08-17 12:49:00,76.6,55.4,30.34,West,277,3.0,8.0,48,0.00,,,0.01,Wunderground v.1.15,2013-08-17 16:49:00,
2013-08-17 12:55:00,76.9,55.7,30.33,WSW,258,3.0,7.0,48,0.00,,,0.01,Wunderground v.1.15,2013-08-17 16:55:00,
2013-08-17 13:01:00,77.1,55.3,30.33,West,272,3.0,4.0,47,0.00,,,0.01,Wunderground v.1.15,2013-08-17 17:01:00,
2013-08-17 13:07:00,77.6,55.8,30.33,SW,220,3.0,6.0,47,0.00,,,0.01,Wunderground v.1.15,2013-08-17 17:07:00,
2013-08-17 13:13:00,77.4,55.0,30.33,South,186,3.0,4.0,46,0.00,,,0.01,Wunderground v.1.15,2013-08-17 17:13:00,
2013-08-17 13:18:00,77.8,56.0,30.33,South,185,2.0,4.0,47,0.00,,,0.01,Wunderground v.1.15,2013-08-17 17:18:00,
2013-08-17 13:24:00,78.2,55.1,30.33,WSW,257,2.0,2.0,45,0.00,,,0.01,Wunderground v.1.15,2013-08-17 17:24:00,
2013-08-17 13:30:00,78.1,56.2,30.33,West,263,1.0,1.0,47,0.00,,,0.01,Wunderground v.1.15,2013-08-17 17:30:00,
2013-08-17 13:36:00,78.4,55.9,30.33,North,349,1.0,4.0,46,0.00,,,0.01,Wunderground v.1.15,2013-08-17 17:36:00,
2013-08-17 13:41:00,78.8,56.9,30.33,NNE,17,1.0,1.0,47,0.00,,,0.01,Wunderground v.1.15,2013-08-17 17:41:00,
2013-08-17 13:47:00,79.7,57.1,30.32,NNE,17,0.0,1.0,46,0.00,,,0.01,Wunderground v.1.15,2013-08-17 17:47:00,
2013-08-17 13:53:00,79.5,58.7,30.32,NE,34,1.0,5.0,49,0.00,,,0.01,Wunderground v.1.15,2013-08-17 17:53:00,
2013-08-17 13:59:00,78.7,58.5,30.32,ESE,110,3.0,8.0,50,0.00,,,0.01,Wunderground v.1.15,2013-08-17 17:59:00,
2013-08-17 14:04:00,78.4,57.7,30.32,ENE,68,3.0,5.0,49,0.00,,,0.01,Wunderground v.1.15,2013-08-17 18:04:00,
2013-08-17 14:10:00,78.0,58.4,30.32,East,85,3.0,3.0,51,0.00,,,0.01,Wunderground v.1.15,2013-08-17 18:10:00,
2013-08-17 14:16:00,77.7,58.7,30.32,SE,127,2.0,4.0,52,0.00,,,0.01,Wunderground v.1.15,2013-08-17 18:16:00,
2013-08-17 14:22:00,77.5,57.4,30.32,SE,142,3.0,6.0,50,0.00,,,0.01,Wunderground v.1.15,2013-08-17 18:22:00,
2013-08-17 14:27:00,77.0,56.9,30.32,SE,134,3.0,6.0,50,0.00,,,0.01,Wunderground v.1.15,2013-08-17 18:27:00,
2013-08-17 14:33:00,76.9,56.8,30.32,ESE,117,1.0,2.0,50,0.00,,,0.01,Wunderground v.1.15,2013-08-17 18:33:00,
2013-08-17 14:39:00,76.2,57.3,30.32,ESE,117,0.0,2.0,52,0.00,,,0.01,Wunderground v.1.15,2013-08-17 18:39:00,
2013-08-17 14:45:00,75.7,57.4,30.31,ESE,117,0.0,0.0,53,0.00,,,0.01,Wunderground v.1.15,2013-08-17 18:45:00,
2013-08-17 14:50:00,76.3,57.9,30.31,ESE,106,0.0,0.0,53,0.00,,,0.01,Wunderground v.1.15,2013-08-17 18:50:00,
2013-08-17 14:56:00,77.9,58.9,30.31,NE,50,1.0,3.0,52,0.00,,,0.01,Wunderground v.1.15,2013-08-17 18:56:00,
2013-08-17 15:02:00,78.8,59.1,30.31,ESE,102,2.0,5.0,51,0.00,,,0.01,Wunderground v.1.15,2013-08-17 19:02:00,
2013-08-17 15:08:00,79.1,59.4,30.31,East,100,4.0,6.0,51,0.00,,,0.01,Wunderground v.1.15,2013-08-17 19:08:00,
2013-08-17 15:14:00,79.6,58.8,30.31,East,101,2.0,4.0,49,0.00,,,0.01,Wunderground v.1.15,2013-08-17 19:14:00,
2013-08-17 15:20:00,80.2,58.1,30.31,SSE,151,1.0,1.0,47,0.00,,,0.01,Wunderground v.1.15,2013-08-17 19:20:00,
2013-08-17 15:26:00,79.8,58.4,30.31,East,97,1.0,4.0,48,0.00,,,0.01,Wunderground v.1.15,2013-08-17 19:26:00,
2013-08-17 15:31:00,79.2,59.0,30.31,East,98,1.0,1.0,50,0.00,,,0.01,Wunderground v.1.15,2013-08-17 19:31:00,
2013-08-17 15:37:00,78.7,58.5,30.31,ENE,61,1.0,3.0,50,0.00,,,0.01,Wunderground v.1.15,2013-08-17 19:37:00,
2013-08-17 15:43:00,77.9,58.3,30.31,East,84,2.0,6.0,51,0.00,,,0.01,Wunderground v.1.15,2013-08-17 19:43:00,
2013-08-17 15:49:00,77.5,59.0,30.30,East,85,2.0,6.0,53,0.00,,,0.01,Wunderground v.1.15,2013-08-17 19:49:00,
2013-08-17 15:54:00,76.8,58.4,30.30,East,88,2.0,2.0,53,0.00,,,0.01,Wunderground v.1.15,2013-08-17 19:54:00,
2013-08-17 16:00:00,76.4,59.0,30.31,East,89,1.0,1.0,55,0.00,,,0.01,Wunderground v.1.15,2013-08-17 20:00:00,
2013-08-17 16:06:00,76.6,57.7,30.30,East,90,0.0,2.0,52,0.00,,,0.01,Wunderground v.1.15,2013-08-17 20:06:00,
2013-08-17 16:12:00,77.8,57.1,30.30,East,82,1.0,2.0,49,0.00,,,0.01,Wunderground v.1.15,2013-08-17 20:12:00,
2013-08-17 16:18:00,78.7,57.9,30.30,East,92,1.0,3.0,49,0.00,,,0.01,Wunderground v.1.15,2013-08-17 20:18:00,
2013-08-17 16:24:00,79.0,59.3,30.31,SSE,159,1.0,1.0,51,0.00,,,0.01,Wunderground v.1.15,2013-08-17 20:24:00,
2013-08-17 16:30:00,78.6,58.4,30.30,SSE,159,0.0,1.0,50,0.00,,,0.01,Wunderground v.1.15,2013-08-17 20:30:00,
2013-08-17 16:36:00,77.5,58.5,30.30,South,175,1.0,3.0,52,0.00,,,0.01,Wunderground v.1.15,2013-08-17 20:36:00,
2013-08-17 16:41:00,76.8,57.8,30.30,South,179,1.0,1.0,52,0.00,,,0.01,Wunderground v.1.15,2013-08-17 20:41:00,
2013-08-17 16:47:00,76.7,58.3,30.31,South,180,1.0,2.0,53,0.00,,,0.01,Wunderground v.1.15,2013-08-17 20:47:00,
2013-08-17 16:53:00,76.6,60.7,30.30,South,186,1.0,1.0,58,0.00,,,0.01,Wunderground v.1.15,2013-08-17 20:53:00,
2013-08-17 16:59:00,76.5,60.1,30.30,South,186,1.0,2.0,57,0.00,,,0.01,Wunderground v.1.15,2013-08-17 20:59:00,
2013-08-17 17:05:00,76.2,57.8,30.31,South,190,1.0,4.0,53,0.00,,,0.01,Wunderground v.1.15,2013-08-17 21:05:00,
2013-08-17 17:11:00,76.2,58.3,30.31,South,186,1.0,1.0,54,0.00,,,0.01,Wunderground v.1.15,2013-08-17 21:11:00,
2013-08-17 17:17:00,76.4,59.5,30.30,South,186,0.0,1.0,56,0.00,,,0.01,Wunderground v.1.15,2013-08-17 21:17:00,
2013-08-17 17:22:00,76.4,58.5,30.30,South,186,0.0,0.0,54,0.00,,,0.01,Wunderground v.1.15,2013-08-17 21:22:00,
2013-08-17 17:28:00,76.3,58.9,30.30,SSW,198,1.0,1.0,55,0.00,,,0.01,Wunderground v.1.15,2013-08-17 21:28:00,
2013-08-17 17:34:00,76.0,59.2,30.30,SSW,202,1.0,2.0,56,0.00,,,0.01,Wunderground v.1.15,2013-08-17 21:34:00,
2013-08-17 17:40:00,75.8,59.0,30.30,SSW,203,1.0,4.0,56,0.00,,,0.01,Wunderground v.1.15,2013-08-17 21:40:00,
2013-08-17 17:45:00,75.7,58.4,30.30,SW,216,3.0,6.0,55,0.00,,,0.01,Wunderground v.1.15,2013-08-17 21:45:00,
2013-08-17 17:51:00,75.5,57.7,30.30,SW,228,4.0,7.0,54,0.00,,,0.01,Wunderground v.1.15,2013-08-17 21:51:00,
2013-08-17 17:57:00,75.2,58.4,30.30,SW,215,5.0,8.0,56,0.00,,,0.01,Wunderground v.1.15,2013-08-17 21:57:00,
2013-08-17 18:03:00,74.9,58.1,30.30,SW,216,4.0,5.0,56,0.00,,,0.01,Wunderground v.1.15,2013-08-17 22:03:00,
2013-08-17 18:09:00,74.8,58.5,30.30,SW,217,3.0,5.0,57,0.00,,,0.01,Wunderground v.1.15,2013-08-17 22:09:00,
2013-08-17 18:15:00,74.7,58.9,30.30,SW,223,3.0,5.0,58,0.00,,,0.01,Wunderground v.1.15,2013-08-17 22:15:00,
2013-08-17 18:21:00,74.5,58.3,30.30,SW,230,4.0,4.0,57,0.00,,,0.01,Wunderground v.1.15,2013-08-17 22:21:00,
2013-08-17 18:26:00,74.6,59.3,30.30,SW,228,3.0,4.0,59,0.00,,,0.01,Wunderground v.1.15,2013-08-17 22:26:00,
2013-08-17 18:32:00,74.5,59.7,30.30,SW,228,2.0,4.0,60,0.00,,,0.01,Wunderground v.1.15,2013-08-17 22:32:00,
2013-08-17 18:38:00,74.2,59.4,30.30,SW,234,3.0,6.0,60,0.00,,,0.01,Wunderground v.1.15,2013-08-17 22:38:00,
2013-08-17 18:44:00,73.9,59.6,30.30,SW,234,3.0,4.0,61,0.00,,,0.01,Wunderground v.1.15,2013-08-17 22:44:00,
2013-08-17 18:49:00,73.5,58.8,30.29,WSW,238,3.0,5.0,60,0.00,,,0.01,Wunderground v.1.15,2013-08-17 22:49:00,
2013-08-17 18:55:00,73.0,58.8,30.30,WSW,238,3.0,4.0,61,0.00,,,0.01,Wunderground v.1.15,2013-08-17 22:55:00,
2013-08-17 19:01:00,72.5,59.2,30.30,WSW,238,3.0,3.0,63,0.00,,,0.01,Wunderground v.1.15,2013-08-17 23:01:00,
2013-08-17 19:07:00,71.9,59.5,30.30,WSW,238,2.0,5.0,65,0.00,,,0.01,Wunderground v.1.15,2013-08-17 23:07:00,
2013-08-17 19:13:00,71.1,59.6,30.30,WSW,238,3.0,3.0,67,0.00,,,0.01,Wunderground v.1.15,2013-08-17 23:13:00,
2013-08-17 19:19:00,70.4,58.9,30.30,WSW,238,2.0,4.0,67,0.00,,,0.01,Wunderground v.1.15,2013-08-17 23:19:00,
2013-08-17 19:25:00,70.0,58.5,30.31,WSW,238,2.0,4.0,67,0.00,,,0.01,Wunderground v.1.15,2013-08-17 23:25:00,
2013-08-17 19:30:00,69.7,59.1,30.30,WSW,238,2.0,2.0,69,0.00,,,0.01,Wunderground v.1.15,2013-08-17 23:30:00,
2013-08-17 19:36:00,69.2,59.8,30.31,WSW,238,1.0,2.0,72,0.00,,,0.01,Wunderground v.1.15,2013-08-17 23:36:00,
2013-08-17 19:42:00,68.5,59.5,30.30,WSW,238,0.0,0.0,73,0.00,,,0.01,Wunderground v.1.15,2013-08-17 23:42:00,
2013-08-17 19:48:00,67.7,58.7,30.30,WSW,238,0.0,1.0,73,0.00,,,0.01,Wunderground v.1.15,2013-08-17 23:48:00,
2013-08-17 19:53:00,67.2,58.6,30.30,WSW,238,0.0,0.0,74,0.00,,,0.01,Wunderground v.1.15,2013-08-17 23:53:00,
2013-08-17 19:59:00,66.6,58.4,30.30,WSW,238,0.0,0.0,75,0.00,,,0.01,Wunderground v.1.15,2013-08-17 23:59:00,
2013-08-17 20:05:00,65.9,58.1,30.30,WSW,238,0.0,0.0,76,0.00,,,0.01,Wunderground v.1.15,2013-08-18 00:05:00,
2013-08-17 20:11:00,65.4,58.7,30.30,WSW,238,0.0,0.0,79,0.00,,,0.01,Wunderground v.1.15,2013-08-18 00:11:00,
2013-08-17 20:17:00,64.8,58.1,30.30,WSW,238,0.0,0.0,79,0.00,,,0.01,Wunderground v.1.15,2013-08-18 00:17:00,
2013-08-17 20:23:00,64.2,57.9,30.30,WSW,238,0.0,0.0,80,0.00,,,0.01,Wunderground v.1.15,2013-08-18 00:23:00,
2013-08-17 20:29:00,63.7,57.8,30.30,WSW,238,0.0,0.0,81,0.00,,,0.01,Wunderground v.1.15,2013-08-18 00:29:00,
2013-08-17 20:34:00,63.4,57.8,30.31,WSW,238,0.0,0.0,82,0.00,,,0.01,Wunderground v.1.15,2013-08-18 00:34:00,
2013-08-17 20:40:00,63.1,57.9,30.31,WSW,238,0.0,0.0,83,0.00,,,0.01,Wunderground v.1.15,2013-08-18 00:40:00,
2013-08-17 20:46:00,62.7,57.8,30.31,WSW,238,0.0,0.0,84,0.00,,,0.01,Wunderground v.1.15,2013-08-18 00:46:00,
2013-08-17 20:52:00,62.3,57.4,30.31,WSW,238,0.0,0.0,84,0.00,,,0.01,Wunderground v.1.15,2013-08-18 00:52:00,
2013-08-17 20:57:00,62.1,57.5,30.31,WSW,238,0.0,0.0,85,0.00,,,0.01,Wunderground v.1.15,2013-08-18 00:57:00,
2013-08-17 21:03:00,61.8,57.6,30.31,WSW,238,0.0,0.0,86,0.00,,,0.01,Wunderground v.1.15,2013-08-18 01:03:00,
2013-08-17 21:09:00,61.4,57.2,30.31,WSW,238,0.0,0.0,86,0.00,,,0.01,Wunderground v.1.15,2013-08-18 01:09:00,
2013-08-17 21:15:00,61.0,57.1,30.31,WSW,238,0.0,0.0,87,0.00,,,0.01,Wunderground v.1.15,2013-08-18 01:15:00,
2013-08-17 21:21:00,60.7,57.1,30.31,WSW,238,0.0,0.0,88,0.00,,,0.01,Wunderground v.1.15,2013-08-18 01:21:00,
2013-08-17 21:27:00,60.4,56.8,30.32,WSW,238,0.0,1.0,88,0.00,,,0.01,Wunderground v.1.15,2013-08-18 01:27:00,
2013-08-17 21:33:00,60.2,56.6,30.32,WSW,238,0.0,0.0,88,0.00,,,0.01,Wunderground v.1.15,2013-08-18 01:33:00,
2013-08-17 21:38:00,60.1,56.8,30.32,WSW,238,0.0,0.0,89,0.00,,,0.01,Wunderground v.1.15,2013-08-18 01:38:00,
2013-08-17 21:44:00,60.1,56.8,30.32,WSW,238,0.0,0.0,89,0.00,,,0.01,Wunderground v.1.15,2013-08-18 01:44:00,
2013-08-17 21:50:00,60.0,57.1,30.32,WSW,238,0.0,0.0,90,0.00,,,0.01,Wunderground v.1.15,2013-08-18 01:50:00,
2013-08-17 21:56:00,59.8,56.9,30.32,WSW,238,0.0,0.0,90,0.00,,,0.01,Wunderground v.1.15,2013-08-18 01:56:00,
2013-08-17 22:01:00,59.6,56.7,30.33,WSW,238,0.0,0.0,90,0.00,,,0.01,Wunderground v.1.15,2013-08-18 02:01:00,
2013-08-17 22:07:00,59.5,56.6,30.32,WSW,238,0.0,0.0,90,0.00,,,0.01,Wunderground v.1.15,2013-08-18 02:07:00,
2013-08-17 22:13:00,59.2,56.3,30.33,WSW,238,0.0,0.0,90,0.00,,,0.01,Wunderground v.1.15,2013-08-18 02:13:00,
2013-08-17 22:19:00,58.9,56.3,30.33,WSW,238,0.0,0.0,91,0.00,,,0.01,Wunderground v.1.15,2013-08-18 02:19:00,
2013-08-17 22:25:00,58.7,56.1,30.33,WSW,238,0.0,0.0,91,0.00,,,0.01,Wunderground v.1.15,2013-08-18 02:25:00,
2013-08-17 22:31:00,58.5,55.9,30.33,WSW,238,0.0,0.0,91,0.00,,,0.01,Wunderground v.1.15,2013-08-18 02:31:00,
2013-08-17 22:37:00,58.3,56.0,30.33,WSW,238,0.0,0.0,92,0.00,,,0.01,Wunderground v.1.15,2013-08-18 02:37:00,
2013-08-17 22:42:00,58.1,55.8,30.33,WSW,238,0.0,0.0,92,0.00,,,0.01,Wunderground v.1.15,2013-08-18 02:42:00,
2013-08-17 22:48:00,57.9,55.6,30.32,WSW,238,0.0,0.0,92,0.00,,,0.01,Wunderground v.1.15,2013-08-18 02:48:00,
2013-08-17 22:54:00,57.8,55.5,30.33,WSW,238,0.0,0.0,92,0.00,,,0.01,Wunderground v.1.15,2013-08-18 02:54:00,
2013-08-17 23:00:00,57.7,55.4,30.33,WSW,238,0.0,0.0,92,0.00,,,0.01,Wunderground v.1.15,2013-08-18 03:00:00,
2013-08-17 23:05:00,57.6,55.3,30.33,WSW,238,0.0,0.0,92,0.00,,,0.01,Wunderground v.1.15,2013-08-18 03:05:00,
2013-08-17 23:11:00,57.5,55.2,30.32,WSW,238,0.0,0.0,92,0.00,,,0.01,Wunderground v.1.15,2013-08-18 03:11:00,
2013-08-17 23:17:00,57.4,55.4,30.33,WSW,238,0.0,0.0,93,0.00,,,0.01,Wunderground v.1.15,2013-08-18 03:17:00,
2013-08-17 23:23:00,57.4,55.4,30.32,WSW,238,0.0,0.0,93,0.00,,,0.01,Wunderground v.1.15,2013-08-18 03:23:00,
2013-08-17 23:29:00,57.2,55.2,30.33,WSW,238,0.0,0.0,93,0.00,,,0.01,Wunderground v.1.15,2013-08-18 03:29:00,
2013-08-17 23:35:00,57.0,55.0,30.33,WSW,238,0.0,0.0,93,0.00,,,0.01,Wunderground v.1.15,2013-08-18 03:35:00,
2013-08-17 23:41:00,56.9,54.9,30.32,WSW,238,0.0,0.0,93,0.00,,,0.01,Wunderground v.1.15,2013-08-18 03:41:00,
2013-08-17 23:46:00,56.7,54.7,30.32,WSW,238,0.0,0.0,93,0.00,,,0.01,Wunderground v.1.15,2013-08-18 03:46:00,
2013-08-17 23:52:00,56.6,54.6,30.32,WSW,238,0.0,0.0,93,0.00,,,0.01,Wunderground v.1.15,2013-08-18 03:52:00,
2013-08-17 23:58:00,56.4,54.4,30.33,WSW,238,0.0,0.0,93,0.00,,,0.01,Wunderground v.1.15,2013-08-18 03:58:00,